,,,PA_Meas_PMT16A,,PR_Meas_QMR101_102,,RH_Meas_QMH101,,SR_Meas_QMS101,,TA_Meas_QMH101,,GenWind,,GenWind,
date,time,status,PA,status,PR,status,RH,status,SR,status,TA,status,DirAvg,status,SpdAvg,
2009-07-04, 00:00:04,VALID,1004.96,VALID,0,VALID,94.2014,VALID,0,VALID,23.7035,VALID,337,VALID,0.351172,
2009-07-04, 00:01:04,VALID,1004.96,VALID,0,VALID,94.1785,VALID,0,VALID,23.7035,VALID,337,VALID,0.476563,
2009-07-04, 00:02:04,VALID,1004.98,VALID,0,VALID,94.1404,VALID,0,VALID,23.7035,VALID,337,VALID,0.459766,
2009-07-04, 00:03:04,VALID,1004.94,VALID,0,VALID,94.1251,VALID,0,VALID,23.7035,VALID,337,VALID,0.468359,
2009-07-04, 00:04:04,VALID,1004.96,VALID,0,VALID,94.1175,VALID,0,VALID,23.7248,VALID,337,VALID,0.532812,
2009-07-04, 00:05:04,VALID,1004.96,VALID,0,VALID,94.1251,VALID,0,VALID,23.7035,VALID,337,VALID,0.467969,
2009-07-04, 00:06:04,VALID,1004.96,VALID,0,VALID,94.148,VALID,0,VALID,23.6841,VALID,337,VALID,0.425781,
2009-07-04, 00:07:04,VALID,1004.95,VALID,0,VALID,94.1633,VALID,0,VALID,23.6841,VALID,337,VALID,0.389844,
2009-07-04, 00:08:04,VALID,1004.95,VALID,0,VALID,94.1404,VALID,0,VALID,23.6452,VALID,337,VALID,0.257422,
2009-07-04, 00:09:04,VALID,1004.93,VALID,0,VALID,94.148,VALID,0,VALID,23.6257,VALID,337,VALID,0.286719,
2009-07-04, 00:10:04,VALID,1004.92,VALID,0,VALID,94.1785,VALID,0,VALID,23.6469,VALID,337,VALID,0.404297,
2009-07-04, 00:11:04,VALID,1004.9,VALID,0,VALID,94.1862,VALID,0,VALID,23.6062,VALID,337,VALID,0.355078,
2009-07-04, 00:12:04,VALID,1004.91,VALID,0,VALID,94.1938,VALID,0,VALID,23.5868,VALID,337,VALID,0.289453,
2009-07-04, 00:13:04,VALID,1004.89,VALID,0,VALID,94.2319,VALID,0,VALID,23.6062,VALID,337,VALID,0.325391,
2009-07-04, 00:14:04,VALID,1004.9,VALID,0,VALID,94.2701,VALID,0,VALID,23.6062,VALID,337,VALID,0.471094,
2009-07-04, 00:15:04,VALID,1004.91,VALID,0,VALID,94.3006,VALID,0,VALID,23.6062,VALID,337,VALID,0.259375,
2009-07-04, 00:16:04,VALID,1004.93,VALID,0,VALID,94.3235,VALID,0,VALID,23.6044,VALID,337,VALID,0.407031,
2009-07-04, 00:17:04,VALID,1004.9,VALID,0,VALID,94.3464,VALID,0,VALID,23.6257,VALID,338,VALID,0.403125,
2009-07-04, 00:18:04,VALID,1004.94,VALID,0,VALID,94.354,VALID,0,VALID,23.6257,VALID,356,VALID,0.426953,
2009-07-04, 00:19:04,VALID,1004.97,VALID,0,VALID,94.3387,VALID,0,VALID,23.6257,VALID,356,VALID,0.405469,
2009-07-04, 00:20:04,VALID,1004.95,VALID,0,VALID,94.354,VALID,0,VALID,23.6044,VALID,356,VALID,0.217969,
2009-07-04, 00:21:04,VALID,1004.97,VALID,0,VALID,94.3616,VALID,0,VALID,23.6452,VALID,356,VALID,0.245312,
2009-07-04, 00:22:04,VALID,1004.97,VALID,0,VALID,94.3692,VALID,0,VALID,23.6646,VALID,356,VALID,0.39375,
2009-07-04, 00:23:04,VALID,1004.94,VALID,0,VALID,94.3464,VALID,0,VALID,23.6044,VALID,356,VALID,0.489453,
2009-07-04, 00:24:04,VALID,1004.94,VALID,0,VALID,94.3006,VALID,0,VALID,23.585,VALID,356,VALID,0.559766,
2009-07-04, 00:25:04,VALID,1004.94,VALID,0,VALID,94.2624,VALID,0,VALID,23.5868,VALID,356,VALID,0.563281,
2009-07-04, 00:26:04,VALID,1004.92,VALID,0,VALID,94.2548,VALID,0,VALID,23.5673,VALID,356,VALID,0.544922,
2009-07-04, 00:27:04,VALID,1004.9,VALID,0,VALID,94.2396,VALID,0,VALID,23.5266,VALID,356,VALID,0.327344,
2009-07-04, 00:28:04,VALID,1004.91,VALID,0,VALID,94.2243,VALID,0,VALID,23.5071,VALID,356,VALID,0.543359,
2009-07-04, 00:29:04,VALID,1004.92,VALID,0,VALID,94.2319,VALID,0,VALID,23.4894,VALID,356,VALID,0.366797,
2009-07-04, 00:30:04,VALID,1004.93,VALID,0,VALID,94.2624,VALID,0,VALID,23.5107,VALID,356,VALID,0.410547,
2009-07-04, 00:31:04,VALID,1004.89,VALID,0,VALID,94.2853,VALID,0.100563,VALID,23.47,VALID,356,VALID,0.262891,
2009-07-04, 00:32:04,VALID,1004.9,VALID,0,VALID,94.2853,VALID,0.100563,VALID,23.4487,VALID,356,VALID,0.35,
2009-07-04, 00:33:04,VALID,1004.86,VALID,0,VALID,94.3158,VALID,0,VALID,23.4487,VALID,356,VALID,0.277734,
2009-07-04, 00:34:04,VALID,1004.85,VALID,0,VALID,94.354,VALID,0.100563,VALID,23.4682,VALID,356,VALID,0.318359,
2009-07-04, 00:35:04,VALID,1004.83,VALID,0,VALID,94.3921,VALID,0,VALID,23.4894,VALID,355,VALID,0.539453,
2009-07-04, 00:36:04,VALID,1004.82,VALID,0,VALID,94.4303,VALID,0,VALID,23.4894,VALID,356,VALID,0.342969,
2009-07-04, 00:37:04,VALID,1004.81,VALID,0,VALID,94.4761,VALID,0,VALID,23.5089,VALID,356,VALID,0.326953,
2009-07-04, 00:38:04,VALID,1004.79,VALID,0,VALID,94.4761,VALID,0.100563,VALID,23.5089,VALID,356,VALID,0.426172,
2009-07-04, 00:39:04,VALID,1004.79,VALID,0,VALID,94.4761,VALID,0,VALID,23.4894,VALID,356,VALID,0.341016,
2009-07-04, 00:40:04,VALID,1004.79,VALID,0,VALID,94.4837,VALID,0,VALID,23.4877,VALID,355,VALID,0.392969,
2009-07-04, 00:41:04,VALID,1004.78,VALID,0,VALID,94.5066,VALID,0,VALID,23.5284,VALID,355,VALID,0.0902344,
2009-07-04, 00:42:04,VALID,1004.78,VALID,0,VALID,94.5142,VALID,0,VALID,23.4877,VALID,355,VALID,0.246875,
2009-07-04, 00:43:04,VALID,1004.78,VALID,0,VALID,94.4989,VALID,0,VALID,23.4877,VALID,355,VALID,0.0121094,
2009-07-04, 00:44:04,VALID,1004.75,VALID,0,VALID,94.5142,VALID,0,VALID,23.4877,VALID,355,VALID,0.0875,
2009-07-04, 00:45:04,VALID,1004.76,VALID,0,VALID,94.5676,VALID,0,VALID,23.4859,VALID,355,VALID,0.16875,
2009-07-04, 00:46:04,VALID,1004.74,VALID,0,VALID,94.5523,VALID,0,VALID,23.5673,VALID,355,VALID,0.382813,
2009-07-04, 00:47:04,VALID,1004.73,VALID,0,VALID,94.5752,VALID,0,VALID,23.585,VALID,355,VALID,0.425781,
2009-07-04, 00:48:04,VALID,1004.74,VALID,0,VALID,94.5981,VALID,0,VALID,23.6646,VALID,355,VALID,0.328516,
2009-07-04, 00:49:04,VALID,1004.73,VALID,0,VALID,94.621,VALID,0,VALID,23.6416,VALID,355,VALID,0.292578,
2009-07-04, 00:50:04,VALID,1004.72,VALID,0,VALID,94.5981,VALID,0,VALID,23.6841,VALID,355,VALID,0,
2009-07-04, 00:51:04,VALID,1004.7,VALID,0,VALID,94.5905,VALID,0,VALID,23.6823,VALID,355,VALID,0,
2009-07-04, 00:52:04,VALID,1004.68,VALID,0,VALID,94.5752,VALID,0,VALID,23.7212,VALID,345,VALID,0.460156,
2009-07-04, 00:53:04,VALID,1004.69,VALID,0,VALID,94.5752,VALID,0,VALID,23.7796,VALID,338,VALID,0.677734,
2009-07-04, 00:54:04,VALID,1004.68,VALID,0,VALID,94.5523,VALID,0,VALID,23.7991,VALID,334,VALID,0.333594,
2009-07-04, 00:55:04,VALID,1004.68,VALID,0,VALID,94.5066,VALID,0,VALID,23.7814,VALID,334,VALID,0.241406,
2009-07-04, 00:56:04,VALID,1004.66,VALID,0,VALID,94.4455,VALID,0.100563,VALID,23.7619,VALID,334,VALID,0.291016,
2009-07-04, 00:57:04,VALID,1004.6,VALID,0,VALID,94.3845,VALID,0.100563,VALID,23.7,VALID,334,VALID,0.207813,
2009-07-04, 00:58:04,VALID,1004.61,VALID,0,VALID,94.293,VALID,0,VALID,23.7212,VALID,334,VALID,0.0148437,
2009-07-04, 00:59:04,VALID,1004.57,VALID,0,VALID,94.2777,VALID,0,VALID,23.723,VALID,334,VALID,0,
2009-07-04, 01:00:04,VALID,1004.56,VALID,0,VALID,94.2624,VALID,0,VALID,23.7425,VALID,334,VALID,0,
2009-07-04, 01:01:04,VALID,1004.55,VALID,0,VALID,94.2624,VALID,0,VALID,23.7425,VALID,334,VALID,0,
2009-07-04, 01:02:04,VALID,1004.53,VALID,0,VALID,94.2624,VALID,0,VALID,23.7619,VALID,298,VALID,0.0839844,
2009-07-04, 01:03:04,VALID,1004.5,VALID,0,VALID,94.2548,VALID,0,VALID,23.7814,VALID,310,VALID,0.199609,
2009-07-04, 01:04:04,VALID,1004.53,VALID,0,VALID,94.2853,VALID,0,VALID,23.7796,VALID,310,VALID,0,
2009-07-04, 01:05:04,VALID,1004.51,VALID,0,VALID,94.2701,VALID,0,VALID,23.8009,VALID,310,VALID,0.125391,
2009-07-04, 01:06:04,VALID,1004.5,VALID,0,VALID,94.2777,VALID,0,VALID,23.8185,VALID,310,VALID,0.162891,
2009-07-04, 01:07:04,VALID,1004.46,VALID,0,VALID,94.2777,VALID,0,VALID,23.8575,VALID,310,VALID,0.233203,
2009-07-04, 01:08:04,VALID,1004.46,VALID,0,VALID,94.2548,VALID,0,VALID,23.8769,VALID,310,VALID,0.129297,
2009-07-04, 01:09:04,VALID,1004.42,VALID,0,VALID,94.2472,VALID,0,VALID,23.8982,VALID,310,VALID,0.0648438,
2009-07-04, 01:10:04,VALID,1004.4,VALID,0,VALID,94.2243,VALID,0,VALID,23.8964,VALID,310,VALID,0,
2009-07-04, 01:11:05,VALID,1004.36,VALID,0,VALID,94.1785,VALID,0,VALID,23.8964,VALID,310,VALID,0.101953,
2009-07-04, 01:12:05,VALID,1004.36,VALID,0,VALID,94.1633,VALID,0,VALID,23.9159,VALID,310,VALID,0.107422,
2009-07-04, 01:13:05,VALID,1004.33,VALID,0,VALID,94.1328,VALID,0,VALID,23.9353,VALID,298,VALID,0.291016,
2009-07-04, 01:14:05,VALID,1004.37,VALID,0,VALID,94.1099,VALID,0,VALID,23.9353,VALID,298,VALID,0.0652344,
2009-07-04, 01:15:05,VALID,1004.32,VALID,0,VALID,94.0946,VALID,0,VALID,23.9742,VALID,298,VALID,0.122656,
2009-07-04, 01:16:05,VALID,1004.29,VALID,0,VALID,94.0183,VALID,0,VALID,23.9742,VALID,298,VALID,0.0910156,
2009-07-04, 01:17:05,VALID,1004.3,VALID,0,VALID,93.9725,VALID,0,VALID,23.9937,VALID,298,VALID,0.0160156,
2009-07-04, 01:18:05,VALID,1004.31,VALID,0,VALID,93.8963,VALID,0,VALID,24.015,VALID,298,VALID,0.113281,
2009-07-04, 01:19:05,VALID,1004.28,VALID,0,VALID,93.8352,VALID,0,VALID,24.0132,VALID,332,VALID,0.332812,
2009-07-04, 01:20:05,VALID,1004.26,VALID,0,VALID,93.7666,VALID,0,VALID,23.9937,VALID,332,VALID,0.0730469,
2009-07-04, 01:21:05,VALID,1004.26,VALID,0,VALID,93.675,VALID,0,VALID,23.9937,VALID,341,VALID,0.460156,
2009-07-04, 01:22:05,VALID,1004.26,VALID,0,VALID,93.6521,VALID,0,VALID,24.0326,VALID,340,VALID,0.285547,
2009-07-04, 01:23:05,VALID,1004.23,VALID,0,VALID,93.6064,VALID,0,VALID,24.0539,VALID,345,VALID,0.648047,
2009-07-04, 01:24:05,VALID,1004.25,VALID,0,VALID,93.4996,VALID,0,VALID,24.0539,VALID,348,VALID,0.390625,
2009-07-04, 01:25:05,VALID,1004.24,VALID,0,VALID,93.3851,VALID,0,VALID,24.0539,VALID,348,VALID,0.397266,
2009-07-04, 01:26:05,VALID,1004.23,VALID,0,VALID,93.3012,VALID,0,VALID,24.0734,VALID,338,VALID,0.468359,
2009-07-04, 01:27:05,VALID,1004.21,VALID,0,VALID,93.1715,VALID,0,VALID,24.0734,VALID,338,VALID,0.275,
2009-07-04, 01:28:05,VALID,1004.2,VALID,0,VALID,93.1029,VALID,0,VALID,24.0734,VALID,338,VALID,0.174609,
2009-07-04, 01:29:05,VALID,1004.19,VALID,0,VALID,93.0418,VALID,0,VALID,24.0539,VALID,338,VALID,0.105469,
2009-07-04, 01:30:05,VALID,1004.17,VALID,0,VALID,92.9655,VALID,0,VALID,24.0539,VALID,338,VALID,0.437109,
2009-07-04, 01:31:05,VALID,1004.18,VALID,0,VALID,92.9579,VALID,0,VALID,24.0539,VALID,341,VALID,0.49375,
2009-07-04, 01:32:05,VALID,1004.2,VALID,0,VALID,92.8816,VALID,0,VALID,24.0539,VALID,341,VALID,0.353516,
2009-07-04, 01:33:05,VALID,1004.2,VALID,0,VALID,92.8358,VALID,0,VALID,24.0929,VALID,341,VALID,0.230469,
2009-07-04, 01:34:05,VALID,1004.19,VALID,0,VALID,92.7672,VALID,0,VALID,24.091,VALID,341,VALID,0.108203,
2009-07-04, 01:35:05,VALID,1004.2,VALID,0,VALID,92.6985,VALID,0,VALID,24.1105,VALID,340,VALID,0.229687,
2009-07-04, 01:36:05,VALID,1004.17,VALID,0,VALID,92.6146,VALID,0,VALID,24.1318,VALID,340,VALID,0.140625,
2009-07-04, 01:37:05,VALID,1004.16,VALID,0,VALID,92.5993,VALID,0,VALID,24.1513,VALID,341,VALID,0.588672,
2009-07-04, 01:38:05,VALID,1004.16,VALID,0,VALID,92.4925,VALID,0,VALID,24.1689,VALID,342,VALID,0.658594,
2009-07-04, 01:39:05,VALID,1004.15,VALID,0,VALID,92.3247,VALID,0,VALID,24.2291,VALID,336,VALID,0.706641,
2009-07-04, 01:40:05,VALID,1004.12,VALID,0,VALID,92.134,VALID,0,VALID,24.2681,VALID,347,VALID,0.276953,
2009-07-04, 01:41:05,VALID,1004.14,VALID,0,VALID,91.8517,VALID,0,VALID,24.2857,VALID,347,VALID,0.0921875,
2009-07-04, 01:42:05,VALID,1004.13,VALID,0,VALID,91.5923,VALID,0,VALID,24.3265,VALID,346,VALID,0.000390625,
2009-07-04, 01:43:05,VALID,1004.11,VALID,0,VALID,91.4398,VALID,0,VALID,24.3265,VALID,354,VALID,0.503906,
2009-07-04, 01:44:05,VALID,1004.13,VALID,0,VALID,91.4016,VALID,0,VALID,24.3246,VALID,342,VALID,0.689062,
2009-07-04, 01:45:05,VALID,1004.09,VALID,0,VALID,91.2567,VALID,0,VALID,24.3654,VALID,353,VALID,0.918359,
2009-07-04, 01:46:05,VALID,1004.08,VALID,0,VALID,91.1041,VALID,0,VALID,24.3849,VALID,351,VALID,0.735156,
2009-07-04, 01:47:05,VALID,1004.08,VALID,0,VALID,90.982,VALID,0,VALID,24.3654,VALID,348,VALID,0.276172,
2009-07-04, 01:48:05,VALID,1004.08,VALID,0,VALID,90.8905,VALID,0,VALID,24.3849,VALID,348,VALID,0.233203,
2009-07-04, 01:49:05,VALID,1004.06,VALID,0,VALID,90.9134,VALID,0,VALID,24.3459,VALID,348,VALID,0.0382813,
2009-07-04, 01:50:05,VALID,1004.07,VALID,0,VALID,90.9668,VALID,0,VALID,24.3459,VALID,332,VALID,0.594141,
2009-07-04, 01:51:05,VALID,1004.07,VALID,0,VALID,91.0049,VALID,0,VALID,24.3265,VALID,328,VALID,0.0316406,
2009-07-04, 01:52:05,VALID,1004.08,VALID,0,VALID,91.0736,VALID,0,VALID,24.3265,VALID,328,VALID,0.519531,
2009-07-04, 01:53:05,VALID,1004.09,VALID,0,VALID,91.1041,VALID,0,VALID,24.307,VALID,352,VALID,0.6375,
2009-07-04, 01:54:05,VALID,1004.07,VALID,0,VALID,91.0965,VALID,0,VALID,24.3459,VALID,359,VALID,0.0535156,
2009-07-04, 01:55:05,VALID,1004.09,VALID,0,VALID,91.0507,VALID,0,VALID,24.3265,VALID,359,VALID,0.307813,
2009-07-04, 01:56:05,VALID,1004.09,VALID,0,VALID,91.0736,VALID,0,VALID,24.307,VALID,358,VALID,0,
2009-07-04, 01:57:05,VALID,1004.11,VALID,0,VALID,91.0659,VALID,0,VALID,24.2662,VALID,349,VALID,0.161719,
2009-07-04, 01:58:05,VALID,1004.11,VALID,0,VALID,91.1499,VALID,0,VALID,24.2468,VALID,349,VALID,0.284375,
2009-07-04, 01:59:05,VALID,1004.13,VALID,0,VALID,91.2109,VALID,0,VALID,24.2486,VALID,349,VALID,0.473437,
2009-07-04, 02:00:05,VALID,1004.13,VALID,0,VALID,91.249,VALID,0,VALID,24.2681,VALID,355,VALID,0.5875,
2009-07-04, 02:01:05,VALID,1004.13,VALID,0,VALID,91.1956,VALID,0,VALID,24.2662,VALID,335,VALID,0.4625,
2009-07-04, 02:02:05,VALID,1004.15,VALID,0,VALID,91.1422,VALID,0,VALID,24.2681,VALID,355,VALID,0.591797,
2009-07-04, 02:03:05,VALID,1004.15,VALID,0,VALID,91.0888,VALID,0,VALID,24.2468,VALID,355,VALID,0.552344,
2009-07-04, 02:04:05,VALID,1004.16,VALID,0,VALID,91.0659,VALID,0,VALID,24.2468,VALID,354,VALID,0.422656,
2009-07-04, 02:05:05,VALID,1004.13,VALID,0,VALID,91.0888,VALID,0,VALID,24.2468,VALID,335,VALID,0.597266,
2009-07-04, 02:06:05,VALID,1004.12,VALID,0,VALID,91.0049,VALID,0,VALID,24.2486,VALID,356,VALID,0.627734,
2009-07-04, 02:07:05,VALID,1004.11,VALID,0,VALID,91.0507,VALID,0,VALID,24.2486,VALID,335,VALID,0.651953,
2009-07-04, 02:08:05,VALID,1004.09,VALID,0,VALID,91.0278,VALID,0,VALID,24.2681,VALID,3,VALID,0.524219,
2009-07-04, 02:09:05,VALID,1004.1,VALID,0,VALID,90.9591,VALID,0,VALID,24.2875,VALID,353,VALID,0.492578,
2009-07-04, 02:10:05,VALID,1004.1,VALID,0,VALID,90.921,VALID,0,VALID,24.307,VALID,350,VALID,0.705859,
2009-07-04, 02:11:05,VALID,1004.09,VALID,0,VALID,90.8829,VALID,0,VALID,24.3265,VALID,349,VALID,0.679688,
2009-07-04, 02:12:05,VALID,1004.1,VALID,0,VALID,90.8447,VALID,0,VALID,24.3265,VALID,343,VALID,0.374219,
2009-07-04, 02:13:05,VALID,1004.08,VALID,0,VALID,90.7837,VALID,0,VALID,24.3265,VALID,348,VALID,0.877734,
2009-07-04, 02:14:05,VALID,1004.04,VALID,0,VALID,90.6769,VALID,0,VALID,24.3654,VALID,341,VALID,0.748438,
2009-07-04, 02:15:05,VALID,1004.06,VALID,0,VALID,90.5167,VALID,0,VALID,24.3849,VALID,342,VALID,0.495703,
2009-07-04, 02:16:05,VALID,1004.04,VALID,0,VALID,90.4404,VALID,0,VALID,24.3636,VALID,342,VALID,0.311328,
2009-07-04, 02:17:05,VALID,1004,VALID,0,VALID,90.4556,VALID,0,VALID,24.3849,VALID,351,VALID,0.876172,
2009-07-04, 02:18:05,VALID,1004,VALID,0,VALID,90.4938,VALID,0,VALID,24.383,VALID,360,VALID,0.692578,
2009-07-04, 02:19:05,VALID,1003.98,VALID,0,VALID,90.4175,VALID,0,VALID,24.4238,VALID,349,VALID,0.627344,
2009-07-04, 02:20:05,VALID,1003.96,VALID,0,VALID,90.387,VALID,0,VALID,24.4043,VALID,348,VALID,0.406641,
2009-07-04, 02:21:05,VALID,1003.95,VALID,0,VALID,90.4938,VALID,0,VALID,24.3459,VALID,348,VALID,0.283594,
2009-07-04, 02:22:05,VALID,1003.96,VALID,0,VALID,90.6692,VALID,0,VALID,24.3265,VALID,348,VALID,0.723437,
2009-07-04, 02:23:05,VALID,1003.92,VALID,0,VALID,90.7532,VALID,0,VALID,24.3265,VALID,8,VALID,0.824609,
2009-07-04, 02:24:05,VALID,1003.89,VALID,0,VALID,90.7379,VALID,0,VALID,24.3265,VALID,349,VALID,0.867969,
2009-07-04, 02:25:05,VALID,1003.89,VALID,0,VALID,90.5548,VALID,0,VALID,24.3441,VALID,359,VALID,0.7125,
2009-07-04, 02:26:05,VALID,1003.88,VALID,0,VALID,90.3565,VALID,0,VALID,24.4043,VALID,351,VALID,0.622266,
2009-07-04, 02:27:05,VALID,1003.89,VALID,0,VALID,90.1047,VALID,0,VALID,24.4433,VALID,1,VALID,1.11211,
2009-07-04, 02:28:05,VALID,1003.86,VALID,0,VALID,89.7233,VALID,0,VALID,24.5212,VALID,345,VALID,0.563281,
2009-07-04, 02:29:05,VALID,1003.84,VALID,0,VALID,89.4028,VALID,0,VALID,24.562,VALID,334,VALID,0.622656,
2009-07-04, 02:30:05,VALID,1003.84,VALID,0,VALID,89.235,VALID,0,VALID,24.5582,VALID,335,VALID,0.708203,
2009-07-04, 02:31:05,VALID,1003.81,VALID,0,VALID,89.0443,VALID,0,VALID,24.6185,VALID,322,VALID,0.732031,
2009-07-04, 02:32:05,VALID,1003.81,VALID,0,VALID,88.8612,VALID,0,VALID,24.6769,VALID,353,VALID,0.658984,
2009-07-04, 02:33:05,VALID,1003.8,VALID,0,VALID,88.6781,VALID,0,VALID,24.6769,VALID,345,VALID,0.733594,
2009-07-04, 02:34:05,VALID,1003.79,VALID,0,VALID,88.3882,VALID,0,VALID,24.675,VALID,347,VALID,0.759766,
2009-07-04, 02:35:05,VALID,1003.82,VALID,0,VALID,88.1288,VALID,0,VALID,24.7956,VALID,341,VALID,0.920313,
2009-07-04, 02:36:05,VALID,1003.83,VALID,0,VALID,88.0373,VALID,0,VALID,24.8327,VALID,349,VALID,0.680078,
2009-07-04, 02:37:05,VALID,1003.84,VALID,0,VALID,87.9457,VALID,0,VALID,24.8132,VALID,331,VALID,0.648047,
2009-07-04, 02:38:05,VALID,1003.84,VALID,0,VALID,87.9152,VALID,0,VALID,24.8327,VALID,343,VALID,0.5875,
2009-07-04, 02:39:05,VALID,1003.85,VALID,0,VALID,87.9,VALID,0,VALID,24.8308,VALID,357,VALID,0.764844,
2009-07-04, 02:40:05,VALID,1003.85,VALID,0,VALID,87.8466,VALID,0,VALID,24.8735,VALID,351,VALID,0.598828,
2009-07-04, 02:41:05,VALID,1003.8,VALID,0,VALID,87.8313,VALID,0,VALID,24.8522,VALID,356,VALID,0.882813,
2009-07-04, 02:42:05,VALID,1003.8,VALID,0,VALID,87.7474,VALID,0,VALID,24.8697,VALID,355,VALID,0.811719,
2009-07-04, 02:43:05,VALID,1003.83,VALID,0,VALID,87.6329,VALID,0,VALID,24.8892,VALID,350,VALID,0.519531,
2009-07-04, 02:44:05,VALID,1003.8,VALID,0,VALID,87.6787,VALID,0.100563,VALID,24.9087,VALID,346,VALID,0.510156,
2009-07-04, 02:45:05,VALID,1003.81,VALID,0,VALID,87.7626,VALID,0.100563,VALID,24.8892,VALID,348,VALID,0.482812,
2009-07-04, 02:46:05,VALID,1003.82,VALID,0,VALID,88.1365,VALID,0,VALID,24.8327,VALID,351,VALID,0.254297,
2009-07-04, 02:47:05,VALID,1003.82,VALID,0,VALID,88.2127,VALID,0,VALID,24.7724,VALID,358,VALID,0.517578,
2009-07-04, 02:48:05,VALID,1003.81,VALID,0,VALID,88.228,VALID,0,VALID,24.7724,VALID,354,VALID,0.516016,
2009-07-04, 02:49:05,VALID,1003.79,VALID,0,VALID,88.228,VALID,0,VALID,24.7529,VALID,354,VALID,0.348828,
2009-07-04, 02:50:05,VALID,1003.8,VALID,0,VALID,88.228,VALID,0,VALID,24.7529,VALID,345,VALID,0.452344,
2009-07-04, 02:51:05,VALID,1003.78,VALID,0,VALID,88.3119,VALID,0,VALID,24.7548,VALID,346,VALID,0.560156,
2009-07-04, 02:52:05,VALID,1003.78,VALID,0,VALID,88.1593,VALID,0,VALID,24.7724,VALID,3,VALID,0.787109,
2009-07-04, 02:53:05,VALID,1003.77,VALID,0,VALID,87.9457,VALID,0,VALID,24.7919,VALID,340,VALID,0.370313,
2009-07-04, 02:54:05,VALID,1003.77,VALID,0,VALID,87.8694,VALID,0,VALID,24.7919,VALID,346,VALID,0.467187,
2009-07-04, 02:55:05,VALID,1003.78,VALID,0,VALID,87.9457,VALID,0,VALID,24.8113,VALID,346,VALID,0.201953,
2009-07-04, 02:56:05,VALID,1003.76,VALID,0,VALID,88.0373,VALID,0,VALID,24.7919,VALID,346,VALID,0.108984,
2009-07-04, 02:57:05,VALID,1003.77,VALID,0,VALID,88.1212,VALID,0.100563,VALID,24.7919,VALID,346,VALID,0.390625,
2009-07-04, 02:58:05,VALID,1003.74,VALID,0,VALID,88.1822,VALID,0,VALID,24.7919,VALID,314,VALID,0.422266,
2009-07-04, 02:59:05,VALID,1003.78,VALID,0,VALID,88.1746,VALID,0,VALID,24.7724,VALID,299,VALID,0.723047,
2009-07-04, 03:00:05,VALID,1003.78,VALID,0,VALID,88.0907,VALID,0,VALID,24.7724,VALID,292,VALID,0.065625,
2009-07-04, 03:01:05,VALID,1003.78,VALID,0,VALID,88.1746,VALID,0,VALID,24.7937,VALID,286,VALID,0.69375,
2009-07-04, 03:02:05,VALID,1003.78,VALID,0,VALID,88.167,VALID,0,VALID,24.7724,VALID,279,VALID,0.479688,
2009-07-04, 03:03:05,VALID,1003.79,VALID,0,VALID,87.9534,VALID,0,VALID,24.7919,VALID,274,VALID,0.598047,
2009-07-04, 03:04:05,VALID,1003.76,VALID,0,VALID,88.0068,VALID,0,VALID,24.8308,VALID,274,VALID,0,
2009-07-04, 03:05:05,VALID,1003.73,VALID,0,VALID,87.9381,VALID,0,VALID,24.8113,VALID,274,VALID,0.00429688,
2009-07-04, 03:06:05,VALID,1003.73,VALID,0,VALID,87.961,VALID,0,VALID,24.8522,VALID,274,VALID,0.0941406,
2009-07-04, 03:07:05,VALID,1003.72,VALID,0,VALID,88.0068,VALID,0,VALID,24.8113,VALID,274,VALID,0.0078125,
2009-07-04, 03:08:05,VALID,1003.67,VALID,0,VALID,88.1365,VALID,0,VALID,24.8132,VALID,274,VALID,0.0679687,
2009-07-04, 03:09:05,VALID,1003.66,VALID,0,VALID,88.2433,VALID,0,VALID,24.7919,VALID,275,VALID,0,
2009-07-04, 03:10:05,VALID,1003.66,VALID,0,VALID,88.3501,VALID,0,VALID,24.7529,VALID,275,VALID,0.200781,
2009-07-04, 03:11:05,VALID,1003.61,VALID,0,VALID,88.4187,VALID,0,VALID,24.7548,VALID,314,VALID,0.494922,
2009-07-04, 03:12:05,VALID,1003.6,VALID,0,VALID,88.5332,VALID,0.100563,VALID,24.714,VALID,352,VALID,0.670703,
2009-07-04, 03:13:05,VALID,1003.58,VALID,0,VALID,88.4645,VALID,0,VALID,24.7159,VALID,3,VALID,0.573438,
2009-07-04, 03:14:05,VALID,1003.57,VALID,0,VALID,88.3501,VALID,0,VALID,24.7335,VALID,351,VALID,0.713281,
2009-07-04, 03:15:05,VALID,1003.57,VALID,0,VALID,88.4111,VALID,0,VALID,24.714,VALID,358,VALID,0.709766,
2009-07-04, 03:16:05,VALID,1003.56,VALID,0,VALID,88.5179,VALID,0,VALID,24.6945,VALID,341,VALID,0.536328,
2009-07-04, 03:17:05,VALID,1003.52,VALID,0,VALID,88.6934,VALID,0.100563,VALID,24.6556,VALID,347,VALID,0.642969,
2009-07-04, 03:18:05,VALID,1003.55,VALID,0,VALID,88.907,VALID,0,VALID,24.638,VALID,347,VALID,0.653906,
2009-07-04, 03:19:05,VALID,1003.52,VALID,0,VALID,89.0138,VALID,0,VALID,24.5777,VALID,348,VALID,0.674219,
2009-07-04, 03:20:05,VALID,1003.51,VALID,0,VALID,89.0595,VALID,0,VALID,24.5388,VALID,356,VALID,0.940625,
2009-07-04, 03:21:05,VALID,1003.49,VALID,0,VALID,88.9985,VALID,0,VALID,24.5582,VALID,348,VALID,0.722266,
2009-07-04, 03:22:05,VALID,1003.48,VALID,0,VALID,88.8765,VALID,0,VALID,24.5564,VALID,343,VALID,0.503516,
2009-07-04, 03:23:05,VALID,1003.48,VALID,0,VALID,88.8231,VALID,0,VALID,24.5972,VALID,356,VALID,0.982813,
2009-07-04, 03:24:05,VALID,1003.49,VALID,0,VALID,88.6705,VALID,0,VALID,24.5758,VALID,354,VALID,0.666016,
2009-07-04, 03:25:05,VALID,1003.51,VALID,0,VALID,88.495,VALID,0.100563,VALID,24.6166,VALID,349,VALID,0.903125,
2009-07-04, 03:26:05,VALID,1003.49,VALID,0,VALID,88.4569,VALID,0,VALID,24.6361,VALID,349,VALID,0.592969,
2009-07-04, 03:27:05,VALID,1003.51,VALID,0,VALID,88.3729,VALID,0,VALID,24.6556,VALID,325,VALID,0.440234,
2009-07-04, 03:28:05,VALID,1003.54,VALID,0,VALID,88.1975,VALID,0,VALID,24.675,VALID,331,VALID,0.464063,
2009-07-04, 03:29:05,VALID,1003.52,VALID,0,VALID,88.3958,VALID,0.100563,VALID,24.6945,VALID,331,VALID,0.0457031,
2009-07-04, 03:30:05,VALID,1003.53,VALID,0,VALID,88.4874,VALID,0,VALID,24.6342,VALID,348,VALID,0.297656,
2009-07-04, 03:31:05,VALID,1003.53,VALID,0,VALID,88.5255,VALID,0.100563,VALID,24.6361,VALID,287,VALID,0.220703,
2009-07-04, 03:32:05,VALID,1003.56,VALID,0,VALID,88.6018,VALID,0.100563,VALID,24.6361,VALID,287,VALID,0.220313,
2009-07-04, 03:33:05,VALID,1003.56,VALID,0,VALID,88.64,VALID,0,VALID,24.6166,VALID,287,VALID,0.104687,
2009-07-04, 03:34:05,VALID,1003.56,VALID,0,VALID,88.6247,VALID,0.100563,VALID,24.6166,VALID,312,VALID,0.418359,
2009-07-04, 03:35:05,VALID,1003.58,VALID,0,VALID,88.5408,VALID,0.100563,VALID,24.5972,VALID,335,VALID,0.579687,
2009-07-04, 03:36:05,VALID,1003.57,VALID,0,VALID,88.495,VALID,0,VALID,24.5953,VALID,357,VALID,0.636719,
2009-07-04, 03:37:05,VALID,1003.57,VALID,0,VALID,88.4111,VALID,0,VALID,24.6166,VALID,349,VALID,0.832422,
2009-07-04, 03:38:05,VALID,1003.56,VALID,0,VALID,88.3272,VALID,0,VALID,24.6574,VALID,346,VALID,0.880469,
2009-07-04, 03:39:05,VALID,1003.55,VALID,0,VALID,88.3501,VALID,0,VALID,24.638,VALID,355,VALID,0.651563,
2009-07-04, 03:40:05,VALID,1003.58,VALID,0,VALID,88.3501,VALID,0.100563,VALID,24.638,VALID,345,VALID,0.576563,
2009-07-04, 03:41:05,VALID,1003.57,VALID,0,VALID,88.3577,VALID,0,VALID,24.5972,VALID,7,VALID,0.702344,
2009-07-04, 03:42:05,VALID,1003.55,VALID,0,VALID,88.434,VALID,0,VALID,24.5972,VALID,354,VALID,0.275391,
2009-07-04, 03:43:05,VALID,1003.57,VALID,0,VALID,88.3195,VALID,0,VALID,24.5758,VALID,347,VALID,0.826172,